Tracking 31027 objects as of 19-Jul-2025
HD Live streaming from Space Station
objects crossing your sky now

STARLINK-5382

Track STARLINK-5382 now!
10-day predictions
STARLINK-5382 is classified as:


NORAD ID: 54820
Int'l Code: 2022-177A
Perigee: 565.4 km
Apogee: 567.1 km
Inclination: 43.0 °
Period: 95.8 minutes
Semi major axis: 6937 km
RCS: Unknown
Launch date: December 28, 2022
Source: United States (US)
Launch site: AIR FORCE EASTERN TEST RANGE (AFETR)
Your satellite tracking list
STARLINK-1243
Track 1 satellite(s)




NASA's NSSDC Master Catalog

Two Line Element Set (TLE):
1 54820U 22177A   25199.63110160 -.00000421  00000-0 -16079-4 0  9998
2 54820  43.0045 325.4141 0001219 269.4183  90.6519 15.02536067141745
Source of the keplerian elements: AFSPC